Вернуться в каталог

COSMOS 2039

АктивенНавигацияPO
NORAD 20233·PAYLOAD·🇷🇺 Russia

Запущен Sep 14, 1989 с Plesetsk Cosmodrome

Loading…

Ближайшие Пролёты (ближайшие 24 часа)

TLE

СвежийSource: Space-Track

Эпоха: Sep 14, 2026, 15:14 UTC

1 20233U 89074B   26257.63523491  .00000032  00000-0  11027-3 0  9992
2 20233  82.5796 126.5714 0014595 149.7740 237.8033 12.66285863709921

Отслеживайте COSMOS 2039 в реальном времени с AllMySat

Download on the App Store